Regional Weather Roundup
Issued by NWS

Home | Current Version | Previous Version | Text Only | Print | Product List | Glossary Off
Versions: 1 2 3 4 5 6 7 8 9 10 11 12 13 14 15 16 17 18 19 20 21 22 23 24 25 26 27 28 29 30 31 32 33 34 35 36 37 38 39 40 41 42 43 44 45 46 47 48 49 50

000
ASUS43 KMKX 230059
RWRWI

WISCONSIN REGIONAL WEATHER ROUNDUP
NATIONAL WEATHER SERVICE MILWAUKEE/SULLIVAN WI
700 PM CST MON JAN 22 2018

NOTE: "FAIR" INDICATES FEW OR NO CLOUDS BELOW 12,000 FEET WITH NO
SIGNIFICANT WEATHER AND/OR OBSTRUCTIONS TO VISIBILITY.

WIZ001-002-006>008-014>016-023>028-230200-
NORTHWEST WISCONSIN

CITY           SKY/WX    TMP DP  RH WIND       PRES   REMARKS
SUPERIOR ARPT  CLOUDY    27  21  78 N15       29.90S WCI  15
ASHLAND        SNOW      24  22  91 NE23G32   29.87F VSB 1/2 WCI   9
HAYWARD        LGT SNOW  24  20  84 N18G32    29.76F VSB 3/4 WCI  10
SIREN          LGT SNOW  26  23  91 NE17G23   29.78S WCI  12
CUMBERLAND       N/A     25  21  86 N20G30    29.69S WCI  11
RICE LAKE      CLOUDY    27  25  94 N25G31    29.69S WCI  12
CHETEK         LGT SNOW  28  26  90 N12G21    29.69R WCI  18
LADYSMITH      CLOUDY    28  26  92 N21G26    29.66F WCI  14
EAU CLAIRE     NOT AVBL
MENOMONIE      LGT SNOW  30  28  92 N15       29.67R WCI  19
NEW RICHMOND   CLOUDY    26  24  93 N21G29    29.71R WCI  12
OSCEOLA        CLOUDY    26  26 100 N16G23    29.77R WCI  14
$$

WIZ003>005-009-010-017-018-230200-
NORTH CENTRAL WISCONSIN

CITY           SKY/WX    TMP DP  RH WIND       PRES   REMARKS
MANITOWISH WTR SNOW      23  23 100 N12       29.71F VSB 1/2 WCI  12
ARBOR VITAE    LGT SNOW  26  24  92 N8G17     29.69F WCI  17
WOODRUFF       LGT SNOW  26  24  92 N8G17     29.69F WCI  17
RHINELANDER    LGT SNOW  26  25  96 NE12G23   29.62F VSB 3/4 WCI  16
EAGLE RIVER    LGT SNOW  25  24  99 N17       29.67F VSB 3/4 WCI  11
LAND O LAKES   LGT SNOW  25  23  92 NE10      29.73S VSB 1   WCI  14
PHILLIPS       LGT SNOW  25  24  97 N18G28    29.65F WCI  11
TOMAHAWK       LGT SNOW  27  25  93 N12       29.63F WCI  17
MEDFORD        LGT SNOW  28  26  89 NE18G25   29.57R WCI  16
MERRILL        LGT SNOW  29  27  92 NE13G29   29.58F WCI  19
$$

WIZ029-030-035-036-043>047-230200-
CENTRAL WISCONSIN

CITY           SKY/WX    TMP DP  RH WIND       PRES   REMARKS
WAUSAU         LGT SNOW  30  27  88 NE10      29.56F FOG     WCI  21
MOSINEE        NOT AVBL
MARSHFIELD     LGT SNOW  31  29  92 NE12      29.56R FOG     WCI  22
STEVENS POINT  MIX PCPN  29  29  99 NE15      29.56F WCI  18
WAUPACA        CLOUDY    32  28  86 NE9G21    29.57S WCI  24
WAUTOMA        CLOUDY    31  28  89 NE17G23   29.54S WCI  19
WISC RAPIDS    NOT AVBL
CAMP DOUGLAS   CLOUDY    32  32 100 NE15      29.54F WCI  22
$$

WIZ011>013-019>022-031-037>040-048>050-230200-
NORTHEAST WISCONSIN

CITY           SKY/WX    TMP DP  RH WIND       PRES   REMARKS
ANTIGO         LGT SNOW  28  27  96 NE20G28   29.57F WCI  14
SHAWANO        CLOUDY    32  29  88 NE13      29.59S WCI  22
OCONTO         CLOUDY    30  28  92 N8G16     29.59F WCI  22
STURGEON BAY   CLOUDY    32  30  92 N17       29.56F FOG     WCI  21
GREEN BAY      CLOUDY    31  29  92 N20G33    29.56S FOG     WCI  19
MANITOWOC      MIX PCPN  34  33  96 N13G20    29.52R WCI  25
APPLETON       CLOUDY    30  30 100 N18G29    29.52S WCI  18
CLINTONVILLE   CLOUDY    32  28  86 NE14G23   29.57S WCI  22
OSHKOSH        CLOUDY    32  30  92 NE21G31   29.52F WCI  20
$$

WIZ032>034-041-042-053>061-230200-
SOUTHWEST WISCONSIN

CITY           SKY/WX    TMP DP  RH WIND       PRES   REMARKS
LA CROSSE      CLOUDY    35  35 100 N10       29.56S WCI  27
SPARTA         CLOUDY    32  31  96 N9G16     29.56S WCI  24
VIROQUA        CLOUDY    32  32 100 NE15      29.51S WCI  22
BOSCOBEL       CLOUDY    37  32  82 NE8       29.51S WCI  31
PRAIRIE DU CHI CLOUDY    35  33  90 N3        29.51S
PLATTEVILLE    CLOUDY    37  37 100 CALM      29.50R
$$

WIZ056-057-062-063-064-067-068-230200-
SOUTH CENTRAL WISCONSIN

CITY           SKY/WX    TMP DP  RH WIND       PRES   REMARKS
REEDSBURG      CLOUDY    32  32 100 NE9       29.52R WCI  24
BARABOO/DELLS  CLOUDY    32  31  96 NE12      29.52R WCI  23
LONE ROCK      CLOUDY    34  33  96 NE13G23   29.51F WCI  25
MINERAL POINT  CLOUDY    36  36 100 NE15      29.46F WCI  26
MADISON        CLOUDY    34  33  96 N13       29.50S WCI  25
MIDDLETON      CLOUDY    35  35 100 N12       29.49F WCI  27
WATERTOWN      DRIZZLE   35  35 100 NW7       29.48R WCI  29
MONROE         CLOUDY    34  34 100 N12       29.45S WCI  25
JANESVILLE     LGT RAIN  39  39 100 VRB6      29.48R WCI  35
$$

WIZ051-052-058>065-066-070>072-230200-
SOUTHEAST WISCONSIN

CITY           SKY/WX    TMP DP  RH WIND       PRES   REMARKS
MILWAUKEE      FOG       37  37 100 NE13      29.45F VSB 1/2 WCI  29
WAUKESHA       FOG       36  36 100 NE9       29.45F VSB 1/2 WCI  29
MILWAUKEE/TIMM CLOUDY    37  36  93 NE7       29.47F FOG     WCI  32
RACINE         FOG       37  37 100 N10       29.46F VSB 1/2 WCI  30
BURLINGTON     MIX PCPN  39  39  97 NE3       29.43F
KENOSHA        FOG       39  37  92 NE9       29.43F VSB 1   WCI  33
FOND DU LAC    LGT RAIN  33  30  88 N18       29.52S FOG     WCI  22
SHEBOYGAN      LGT RAIN  35  35 100 N13       29.50R FOG     WCI  26
WEST BEND      CLOUDY    34  34 100 N8        29.48S FOG     WCI  27
JUNEAU         LGT RAIN  32  32  99 N15       29.50R WCI  22
$$

LSZ147-162-230200-
LAKE SUPERIOR

STATION/POSITION TIME  TEMP    WIND        PRES    WAVE
                       AIR SEA DIR/SP/G            HT/PER
                 (UTC) (F)     (DEG/KT/KT) (MB)    (FT/S)
DEVILS ISLAND    0000   26      40/ 25/ 27 1012.8R
SAXON HARBOR     0040   27      30/ 23/ 30 1010.8R
$$

LMZ867-665-643>646-230200-
LAKE MICHIGAN

STATION/POSITION TIME  TEMP    WIND        PRES    WAVE
                       AIR SEA DIR/SP/G            HT/PER
                 (UTC) (F)     (DEG/KT/KT) (MB)    (FT/S)
NORTHPORT PIER   0040   31      40/  9/ 17 1003.7R
KEWAUNEE LAKESHO 0030   34      10/ 14/ 20  999.5F
SHEBOYGAN LAKESH 0000   36     350/ 16/ 17  998.9F
PORT WASHINGTON  0040   37     360/  3/  8  999.7S
MILWAUKEE LAKESH 0030   36      10/ 12/ 14   N/A
KENOSHA   LAKESH 0000   38      50/  3/  5  997.6
$$

TC  - TEMPERATURE IN CELSIUS
VSB - VISIBILITY IN STATUTE MILES
WCI - WIND CHILL INDEX
HX  - HEAT INDEX




USA.gov is the U.S. government's official web portal to all federal, state and local government web resources and services.